Cosmos 1441 - Orbit

View from above orbital plane
View from above orbital plane
View from above satellite
View from above satellite

Ground track
Ground track

The orbit data is extracted from the following two-line orbital elements,

1 13818U 83010A   13145.31040830  .00017217  00000-0  36549-3 0  5776
2 13818 081.0723 219.3668 0000305 250.2280 174.1731 15.44908450659538
Epoch (UTC): 25 May 2013 07:26:59
Eccentricity: 0.0000305
inclination: 81.0723°
perigee height: 431 km
apogee height: 432 km
right ascension of ascending node: 219.3668°
argument of perigee: 250.2280°
revolutions per day: 15.44908450
mean anomaly at epoch: 174.1731°
orbit number at epoch: 65953

The dashed part of the orbit path shows where the satellite is in the earth's shadow,  

Developed and maintained by Chris Peat, Heavens-Above GmbH. Please read the updated FAQ before sending e-mail. Imprint. DLR